Weather History for Minneapolis, MN

Change the Weather History Date:

Thursday, December 6, 2012

  Actual Average Record
Temperature  
Mean Temperature 37 °F 23 °F  
Max Temperature 46 °F 30 °F 63 °F (1939)
Min Temperature 27 °F 16 °F -19 °F (1972)
Degree Days  
Heating Degree Days 28 42  
Month to date heating degree days 168 246  
Since 1 July heating degree days 1656 1865  
Cooling Degree Days 0 0  
Month to date cooling degree days 0 0  
Year to date cooling degree days 1131 753  
Moisture  
Dew Point 29 °F    
Average Humidity 68    
Maximum Humidity 82    
Minimum Humidity 54    
Precipitation  
Precipitation T in 0.04 in 0.53 in (1935)
Month to date precipitation 0.02 0.26  
Year to date precipitation 27.97 29.71  
Snow  
Snow 0.00 in 0.40 in 4.40 in (1969)
Month to date snowfall 0.0 2.4  
Since 1 July snowfall 0.8 12.3  
Snow Depth 0.00 in    
Sea Level Pressure  
Sea Level Pressure 29.89 in    
Wind  
Wind Speed 11 mph (West)    
Max Wind Speed 20 mph    
Max Gust Speed 28 mph    
Visibility 10 miles    
Events      
T = Trace of Precipitation, MM = Missing Value Source: NWS Daily Summary

Daily Weather History Graph

Daily Weather History Graph

Search for Another Location

Airport:

Trip Planner

Search our weather history database for the weather conditions in past years. The results will help you decide how hot, cold, wet, or windy it might be!

Date:

Astronomy

Dec. 06, 2012 Rise Set
Actual Time 7:36 AM CST 4:31 PM CST
Civil Twilight 7:03 AM CST 5:05 PM CST
Nautical Twilight 6:26 AM CST 5:42 PM CST
Astronomical Twilight 5:50 AM CST 6:17 PM CST
Moon No Moon Rise 12:14 PM CST (12/6)
Length of Visible Light 10h 02m
Length of Day
8h 55m
Waning Gibbous, 49% of the Moon is Illuminated
Dec 6
Waning Gibbous
Dec 13
New
Dec 19
First Quarter
Dec 28
Full
Jan 4
Last Quarter

Hourly Weather History & Observations

Time (CST) Temp. Windchill Dew Point Humidity Pressure Visibility Wind Dir Wind Speed Gust Speed Precip Events Conditions
12:53 AM 39.9 °F 32.9 °F 27.0 °F 60% 29.88 in 10.0 mi SSE 11.5 mph 20.7 mph N/A   Overcast
1:53 AM 41.0 °F 33.1 °F 28.0 °F 60% 29.86 in 10.0 mi SSE 15.0 mph 20.7 mph N/A   Overcast
2:53 AM 41.0 °F 35.2 °F 28.9 °F 62% 29.85 in 10.0 mi SSE 9.2 mph - N/A   Overcast
3:53 AM 44.1 °F 38.6 °F 30.9 °F 60% 29.83 in 10.0 mi South 10.4 mph - N/A   Overcast
4:53 AM 45.0 °F 39.3 °F 34.0 °F 65% 29.83 in 10.0 mi South 11.5 mph 20.7 mph N/A   Overcast
5:53 AM 46.0 °F 41.4 °F 35.1 °F 66% 29.82 in 10.0 mi South 9.2 mph 16.1 mph N/A   Overcast
6:53 AM 45.0 °F 39.7 °F 37.0 °F 74% 29.82 in 10.0 mi SSW 10.4 mph - 0.00 in   Overcast
7:53 AM 43.0 °F 37.7 °F 37.0 °F 80% 29.79 in 10.0 mi South 9.2 mph 18.4 mph N/A   Overcast
8:53 AM 44.1 °F 38.6 °F 37.0 °F 76% 29.82 in 10.0 mi SW 10.4 mph - N/A   Mostly Cloudy
9:53 AM 44.1 °F 37.4 °F 33.1 °F 65% 29.84 in 10.0 mi WNW 13.8 mph - N/A   Mostly Cloudy
10:53 AM 43.0 °F 35.4 °F 30.9 °F 62% 29.85 in 10.0 mi West 16.1 mph - N/A   Scattered Clouds
11:53 AM 44.1 °F 37.4 °F 30.9 °F 60% 29.84 in 10.0 mi WNW 13.8 mph - N/A   Scattered Clouds
12:53 PM 43.0 °F 35.7 °F 30.0 °F 60% 29.86 in 10.0 mi WNW 15.0 mph 23.0 mph N/A   Scattered Clouds
1:53 PM 43.0 °F 37.2 °F 30.0 °F 60% 29.87 in 10.0 mi WNW 10.4 mph - N/A   Scattered Clouds
2:53 PM 43.0 °F 37.2 °F 28.9 °F 58% 29.88 in 10.0 mi West 10.4 mph - N/A   Scattered Clouds
3:53 PM 41.0 °F 33.5 °F 28.0 °F 60% 29.90 in 10.0 mi WNW 13.8 mph - N/A   Mostly Cloudy
4:53 PM 39.9 °F 32.1 °F 27.0 °F 60% 29.92 in 10.0 mi West 13.8 mph - N/A   Mostly Cloudy
5:53 PM 39.0 °F 31.8 °F 26.1 °F 60% 29.94 in 10.0 mi West 11.5 mph - N/A   Overcast
6:53 PM 37.0 °F 29.3 °F 25.0 °F 62% 29.96 in 10.0 mi NW 11.5 mph - N/A   Overcast
7:53 PM 35.1 °F 27.9 °F 25.0 °F 67% 29.98 in 10.0 mi WNW 9.2 mph - N/A   Overcast
8:53 PM 34.0 °F 25.5 °F 24.1 °F 67% 29.99 in 10.0 mi NW 11.5 mph - N/A   Mostly Cloudy
9:53 PM 30.0 °F 25.2 °F 23.0 °F 75% 30.01 in 10.0 mi WNW 4.6 mph - N/A   Partly Cloudy
10:53 PM 28.9 °F 19.8 °F 21.0 °F 72% 30.02 in 10.0 mi NW 10.4 mph - N/A   Scattered Clouds
11:53 PM 28.0 °F 19.3 °F 21.0 °F 75% 30.02 in 10.0 mi NNW 9.2 mph - N/A   Scattered Clouds